CW9887 Weather Reports


Display with metric or nautical units.
time (UTC)temp
F
wind
direction
speed
MPH
gust
MPH
rain 1hr
in
rain 24hr
in
rain mn
in
humidity
%
barometer
mb
20260504181840 64 273 5.0 0.0 0.00 0.00 0.00 48 1004.8
20260504181545 64 240 5.0 0.0 0.00 0.00 0.00 48 1005.4
20260504180339 64 261 6.0 0.0 0.00 0.00 0.00 49 1004.9
20260504180044 63 223 6.0 0.0 0.00 0.00 0.00 50 1005.5
20260504174840 63 223 6.0 0.0 0.00 0.00 0.00 49 1005.0
20260504174612 62 281 6.0 0.0 0.00 0.00 0.00 49 1005.5
20260504173356 62 215 6.0 0.0 0.00 0.00 0.00 49 1005.0
20260504173058 62 224 6.0 0.0 0.00 0.00 0.00 49 1005.6
20260504171853 62 218 7.0 0.0 0.00 0.00 0.00 49 1005.1
20260504171536 61 239 7.0 0.0 0.00 0.00 0.00 48 1005.8
20260504170356 63 173 6.0 0.0 0.00 0.00 0.00 48 1005.1
20260504150348 62 219 8.0 0.0 0.00 0.00 0.00 48 1005.8
20260504140341 58 196 6.0 0.0 0.00 0.00 0.00 55 1006.3
20260504130339 54 207 4.0 0.0 0.00 0.00 0.00 63 1007.0
20260504110117 41 133 0.0 0.0 0.00 0.00 0.00 80 1008.4
20260504090105 41 113 0.0 0.0 0.00 0.00 0.00 73 1008.2
20260504081546 41 113 1.0 0.0 0.00 0.00 0.00 72 1008.5
20260504080344 42 113 1.0 0.0 0.00 0.00 0.00 72 1007.7
20260504070345 42 243 2.0 0.0 0.00 0.00 0.00 69 1007.6
20260504050342 39 224 2.0 0.0 0.00 0.00 0.00 70 1007.4
20260504044839 39 234 2.0 0.0 0.00 0.00 0.00 70 1007.5
20260504044604 38 234 2.0 0.0 0.00 0.00 0.00 70 1008.4
20260504043356 39 241 2.0 0.0 0.00 0.00 0.00 71 1007.4
20260504043100 38 235 2.0 0.0 0.00 0.00 0.00 71 1008.4
20260504041857 38 222 1.0 0.0 0.00 0.00 0.00 71 1007.6
20260504041540 38 222 1.0 0.0 0.00 0.00 0.00 71 1008.5
20260504040338 39 222 1.0 0.0 0.00 0.00 0.00 71 1007.4
20260504034853 39 224 0.0 0.0 0.00 0.00 0.01 70 1007.3
20260504034520 39 224 0.0 0.0 0.00 0.00 0.01 70 1008.2
20260504033104 39 224 2.0 0.0 0.00 0.00 0.01 69 1008.2
20260504031851 40 207 1.0 0.0 0.00 0.00 0.01 69 1007.3
20260504031534 39 207 1.0 0.0 0.00 0.00 0.01 69 1008.1
20260504030351 40 205 1.0 0.0 0.00 0.00 0.01 70 1007.1
20260504030012 39 205 1.0 0.0 0.00 0.00 0.01 69 1008.1
20260504024549 40 205 2.0 0.0 0.00 0.00 0.01 67 1007.9
20260504023347 40 201 2.0 0.0 0.00 0.00 0.01 67 1007.3
20260504023045 40 201 2.0 0.0 0.00 0.00 0.01 67 1008.2
20260504021843 41 201 2.0 0.0 0.00 0.00 0.01 66 1007.4
20260504021544 41 201 2.0 0.0 0.00 0.00 0.01 66 1008.2
20260504020347 41 212 2.0 0.0 0.00 0.00 0.01 64 1007.4
20260504020008 41 211 2.0 0.0 0.00 0.00 0.01 64 1008.3
20260504014542 41 213 1.0 0.0 0.00 0.00 0.01 63 1008.1
20260504013340 42 213 1.0 0.0 0.00 0.00 0.01 64 1007.2
20260504013043 42 213 1.0 0.0 0.00 0.00 0.01 64 1007.9
20260504011838 42 214 1.0 0.0 0.00 0.00 0.01 62 1007.8
20260504011545 42 214 1.0 0.0 0.00 0.00 0.01 62 1007.9
20260504010359 43 218 2.0 0.0 0.00 0.00 0.01 62 1006.9
20260504010015 42 218 2.0 0.0 0.00 0.00 0.01 63 1007.9
20260504004557 43 211 2.0 0.0 0.00 0.00 0.01 60 1007.7
20260504003355 43 240 2.0 0.0 0.00 0.00 0.01 61 1006.6
20260504003014 43 198 2.0 0.0 0.00 0.00 0.01 61 1007.5
20260504001541 43 197 1.0 0.0 0.00 0.00 0.01 61 1007.2
20260504000354 44 224 2.0 0.0 0.00 0.00 0.01 59 1006.3
20260504000058 44 231 2.0 0.0 0.00 0.00 0.01 59 1007.0
20260503234855 45 223 2.0 0.0 0.00 0.00 0.01 58 1006.2
20260503234513 45 229 2.0 0.0 0.00 0.00 0.01 58 1007.0
20260503233053 45 213 2.0 0.0 0.00 0.00 0.01 56 1006.9
20260503231851 46 167 2.0 0.0 0.00 0.00 0.01 55 1006.1
20260503231535 46 210 2.0 0.0 0.00 0.00 0.01 56 1006.9
20260503230356 46 229 3.0 0.0 0.00 0.00 0.01 55 1005.9
20260503230055 46 219 4.0 0.0 0.00 0.00 0.01 54 1006.7
20260503224853 47 182 4.0 0.0 0.00 0.00 0.01 53 1005.7
20260503224551 47 184 4.0 0.0 0.00 0.00 0.01 53 1006.6
20260503223349 47 176 4.0 0.0 0.00 0.00 0.01 52 1005.6
20260503223053 47 161 4.0 0.0 0.00 0.00 0.01 52 1006.4
20260503221850 48 182 3.0 0.0 0.00 0.00 0.01 53 1005.5
20260503221539 47 19 3.0 0.0 0.00 0.00 0.01 52 1006.3
20260503220350 48 232 4.0 0.0 0.00 0.00 0.01 52 1005.4
20260503220108 47 188 4.0 0.0 0.00 0.00 0.01 52 1006.1
20260503214852 49 222 3.0 0.0 0.00 0.00 0.01 51 1005.4
20260503214550 49 216 3.0 0.0 0.00 0.00 0.01 51 1006.0
20260503213348 48 277 4.0 0.0 0.00 0.00 0.01 51 1005.1
20260503213049 48 267 4.0 0.0 0.00 0.00 0.01 52 1005.9
20260503211844 47 213 4.0 0.0 0.00 0.00 0.01 52 1005.1
20260503211601 47 277 4.0 0.0 0.00 0.00 0.01 51 1006.1
20260503210347 48 208 5.0 0.0 0.00 0.00 0.01 50 1004.9
20260503210049 48 175 5.0 0.0 0.00 0.00 0.01 50 1005.8
20260503204845 48 175 4.0 0.0 0.00 0.00 0.01 52 1004.8
20260503204542 47 256 4.0 0.0 0.00 0.00 0.01 50 1005.4
20260503203340 48 180 5.0 0.0 0.00 0.00 0.01 51 1004.6
20260503203043 48 140 5.0 0.0 0.00 0.00 0.01 51 1005.4
20260503201842 48 256 5.0 0.0 0.00 0.00 0.01 51 1004.6
20260503201545 48 331 5.0 0.0 0.00 0.00 0.01 50 1005.4
20260503200003 47 45 3.0 0.0 0.00 0.00 0.01 54 1005.5
20260503194549 47 117 4.0 0.0 0.00 0.00 0.01 54 1005.5
20260503193345 48 337 3.0 0.0 0.00 0.00 0.01 54 1004.6
20260503193049 47 88 3.0 0.0 0.00 0.00 0.01 55 1005.5
20260503191842 47 200 3.0 0.0 0.00 0.00 0.01 56 1004.6
20260503191546 46 255 3.0 0.0 0.00 0.00 0.01 56 1005.4
20260503190046 46 125 4.0 0.0 0.00 0.00 0.01 56 1005.4
20260503184843 48 302 4.0 0.0 0.00 0.00 0.01 57 1004.7
20260503184544 48 190 4.0 0.0 0.00 0.00 0.01 57 1005.6
20260503183341 49 177 4.0 0.0 0.00 0.00 0.01 56 1004.6
20260503183042 48 26 5.0 0.0 0.00 0.00 0.01 56 1005.2